Eko 4 — SVAR8 — position and weather

sailwx.info

Track history (hours):
 
Tides and Currents Weather Stations Pressure Air Temp Water Temp Dewpoint Dewpoint Depression Visibility Wind Speed Wind Dir Waves Ship Positions

Eko 4

Last reported at 2014-Sep-01 13:34 UTC. Time now 2014-Sep-01 13:53 UTC.
Position N 37°16' E 025°24'.

Length 88 m; draft 5.6 m.

Type: Ship (hazmat cat A). MMSI: 240912000.

Date/timePositionNaut miles runAvg speedWind from/ knotsBaromVisibWave heightAir tempDewpointWater temp
2014-Sep-01 13:34N 37°16' E 025°24'10 9.9
2014-Sep-01 12:34N 37°17' E 025°11'10 9.9
2014-Sep-01 11:34N 37°19' E 024°59'10 9.6
2014-Sep-01 10:34N 37°22' E 024°48'1010.0
2014-Sep-01 09:33N 37°27' E 024°36'10 9.9
2014-Sep-01 08:32N 37°31' E 024°25'9 9.4
2014-Sep-01 07:33N 37°30' E 024°13'1310.4
2014-Sep-01 06:16N 37°35' E 023°58'910.4
2014-Sep-01 05:24N 37°38' E 023°47'8 9.3
2014-Sep-01 04:33N 37°44' E 023°40'8 8.5
2014-Sep-01 03:33N 37°50' E 023°32'1010.0
2014-Sep-01 02:34N 37°52' E 023°20'12 0.6
2014-Aug-31 07:14N 37°55' E 023°05'1 0.1
2014-Aug-30 19:20N 37°54' E 023°06'9 4.3
2014-Aug-30 17:20N 37°52' E 023°16'810.6
2014-Aug-30 16:34N 37°51' E 023°27'10 9.8
2014-Aug-30 15:34N 37°50' E 023°39'10 9.6
2014-Aug-30 14:32N 37°41' E 023°45'98 8.1
2014-Aug-30 02:24N 36°18' E 024°50'7 8.5
2014-Aug-30 01:33N 36°11' E 024°52'9 8.3
2014-Aug-30 00:29N 36°03' E 024°55'7 7.8
2014-Aug-29 23:33N 35°56' E 024°57'10 8.2
2014-Aug-29 22:23N 35°46' E 024°59'12 0.3
2014-Aug-28 10:31N 35°34' E 024°59'1110.3
2014-Aug-28 09:30N 35°44' E 024°52'1110.6
2014-Aug-28 08:28N 35°53' E 024°46'1010.6
2014-Aug-28 07:33N 36°02' E 024°41'1110.7
2014-Aug-28 06:33N 36°11' E 024°34'1010.1
2014-Aug-28 05:33N 36°20' E 024°27'10 9.9
2014-Aug-28 04:33N 36°28' E 024°21'10 9.8
2014-Aug-28 03:32N 36°37' E 024°15'1310.4
2014-Aug-28 02:18N 36°49' E 024°09'910.3
2014-Aug-28 01:29N 36°57' E 024°05'10 9.8
2014-Aug-28 00:27N 37°06' E 023°60'1410.1
2014-Aug-27 23:06N 37°19' E 023°54'16 9.9
2014-Aug-27 21:28N 37°33' E 023°46'910.1
2014-Aug-27 20:33N 37°42' E 023°41'10 9.9
2014-Aug-27 19:33N 37°51' E 023°36'9 8.5
2014-Aug-27 18:32N 37°59' E 023°33'2 0.2
2014-Aug-27 05:19N 38°01' E 023°35'1 1.4
2014-Aug-27 04:32N 38°01' E 023°33'1 0.1
2014-Aug-26 21:33N 38°02' E 023°32'0 0.0
2014-Aug-26 20:30N 38°02' E 023°32'0 0.0
2014-Aug-26 19:32N 38°02' E 023°32'0 0.0
2014-Aug-26 18:14N 38°02' E 023°32'0 0.0
2014-Aug-26 17:20N 38°02' E 023°32'2 2.6
2014-Aug-26 16:31N 37°60' E 023°33'7 7.4
2014-Aug-26 15:33N 37°54' E 023°37'1110.7
2014-Aug-26 14:33N 37°44' E 023°43'4310.2
2014-Aug-26 10:18N 37°10' E 024°16'8 9.9
2014-Aug-26 09:31N 37°04' E 024°23'1010.3
2014-Aug-26 08:34N 36°57' E 024°32'10 9.7
2014-Aug-26 07:33N 36°50' E 024°40'10 9.7
2014-Aug-26 06:31N 36°40' E 024°43'1010.2
2014-Aug-26 05:33N 36°31' E 024°47'1010.2
2014-Aug-26 04:34N 36°21' E 024°50'10 9.6
2014-Aug-26 03:32N 36°11' E 024°52'9 9.3
2014-Aug-26 02:32N 36°02' E 024°55'10 9.4
2014-Aug-26 01:30N 35°53' E 024°58'12 9.6
2014-Aug-26 00:17N 35°41' E 025°00'12 9.9
2014-Aug-25 23:05N 35°30' E 025°04'6 9.8
2014-Aug-25 22:30N 35°24' E 025°05'4 0.5
2014-Aug-25 14:29N 35°21' E 025°03'0 0.0
2014-Aug-25 07:12N 35°21' E 025°03'21 1.4
2014-Aug-24 15:28N 35°41' E 024°54'1510.6
2014-Aug-24 14:05N 35°54' E 024°45'610.7
2014-Aug-24 13:32N 35°59' E 024°42'1110.7
2014-Aug-24 12:32N 36°08' E 024°35'1010.4
2014-Aug-24 11:32N 36°18' E 024°29'1110.2
2014-Aug-24 10:28N 36°27' E 024°22'910.2
2014-Aug-24 09:32N 36°35' E 024°16'1010.1
2014-Aug-24 08:32N 36°45' E 024°11'1010.1
2014-Aug-24 07:33N 36°54' E 024°07'1210.2
2014-Aug-24 06:19N 37°05' E 024°01'2210.1
2014-Aug-24 04:11N 37°25' E 023°50'710.2
2014-Aug-24 03:28N 37°32' E 023°47'910.1
2014-Aug-24 02:33N 37°40' E 023°42'1010.3
2014-Aug-24 01:33N 37°49' E 023°36'1010.2
2014-Aug-24 00:33N 37°52' E 023°23'7 6.6
2014-Aug-23 23:33N 37°58' E 023°25'8 7.8
2014-Aug-23 22:30N 38°01' E 023°35'2 0.1
2014-Aug-22 21:08N 38°01' E 023°32'0 0.0
2014-Aug-22 20:32N 38°01' E 023°33'0 0.0
2014-Aug-22 19:32N 38°01' E 023°32'0 0.0
2014-Aug-22 18:32N 38°01' E 023°33'0 0.0
2014-Aug-22 17:32N 38°01' E 023°33'0 0.0
2014-Aug-22 16:32N 38°01' E 023°33'0 0.0
2014-Aug-22 15:08N 38°01' E 023°33'0 0.0
2014-Aug-22 14:32N 38°01' E 023°33'  
Track history (hours):
 
Tides and Currents Weather Stations Pressure Air Temp Water Temp Dewpoint Dewpoint Depression Visibility Wind Speed Wind Dir Waves Ship Positions

Eko 4

Last reported at 2014-Sep-01 13:34 UTC. Time now 2014-Sep-01 13:53 UTC.
Position N 37°16' E 025°24'.

Length 88 m; draft 5.6 m.

Type: Ship (hazmat cat A). MMSI: 240912000.

Date/timePositionNaut miles runAvg speedWind from/ knotsBaromVisibWave heightAir tempDewpointWater temp
2014-Sep-01 13:34N 37°16' E 025°24'10 9.9
2014-Sep-01 12:34N 37°17' E 025°11'10 9.9
2014-Sep-01 11:34N 37°19' E 024°59'10 9.6
2014-Sep-01 10:34N 37°22' E 024°48'1010.0
2014-Sep-01 09:33N 37°27' E 024°36'10 9.9
2014-Sep-01 08:32N 37°31' E 024°25'9 9.4
2014-Sep-01 07:33N 37°30' E 024°13'1310.4
2014-Sep-01 06:16N 37°35' E 023°58'910.4
2014-Sep-01 05:24N 37°38' E 023°47'8 9.3
2014-Sep-01 04:33N 37°44' E 023°40'8 8.5
2014-Sep-01 03:33N 37°50' E 023°32'1010.0
2014-Sep-01 02:34N 37°52' E 023°20'12 0.6
2014-Aug-31 07:14N 37°55' E 023°05'1 0.1
2014-Aug-30 19:20N 37°54' E 023°06'9 4.3
2014-Aug-30 17:20N 37°52' E 023°16'810.6
2014-Aug-30 16:34N 37°51' E 023°27'10 9.8
2014-Aug-30 15:34N 37°50' E 023°39'10 9.6
2014-Aug-30 14:32N 37°41' E 023°45'98 8.1
2014-Aug-30 02:24N 36°18' E 024°50'7 8.5
2014-Aug-30 01:33N 36°11' E 024°52'9 8.3
2014-Aug-30 00:29N 36°03' E 024°55'7 7.8
2014-Aug-29 23:33N 35°56' E 024°57'10 8.2
2014-Aug-29 22:23N 35°46' E 024°59'12 0.3
2014-Aug-28 10:31N 35°34' E 024°59'1110.3
2014-Aug-28 09:30N 35°44' E 024°52'1110.6
2014-Aug-28 08:28N 35°53' E 024°46'1010.6
2014-Aug-28 07:33N 36°02' E 024°41'1110.7
2014-Aug-28 06:33N 36°11' E 024°34'1010.1
2014-Aug-28 05:33N 36°20' E 024°27'10 9.9
2014-Aug-28 04:33N 36°28' E 024°21'10 9.8
2014-Aug-28 03:32N 36°37' E 024°15'1310.4
2014-Aug-28 02:18N 36°49' E 024°09'910.3
2014-Aug-28 01:29N 36°57' E 024°05'10 9.8
2014-Aug-28 00:27N 37°06' E 023°60'1410.1
2014-Aug-27 23:06N 37°19' E 023°54'16 9.9
2014-Aug-27 21:28N 37°33' E 023°46'910.1
2014-Aug-27 20:33N 37°42' E 023°41'10 9.9
2014-Aug-27 19:33N 37°51' E 023°36'9 8.5
2014-Aug-27 18:32N 37°59' E 023°33'2 0.2
2014-Aug-27 05:19N 38°01' E 023°35'1 1.4
2014-Aug-27 04:32N 38°01' E 023°33'1 0.1
2014-Aug-26 21:33N 38°02' E 023°32'0 0.0
2014-Aug-26 20:30N 38°02' E 023°32'0 0.0
2014-Aug-26 19:32N 38°02' E 023°32'0 0.0
2014-Aug-26 18:14N 38°02' E 023°32'0 0.0
2014-Aug-26 17:20N 38°02' E 023°32'2 2.6
2014-Aug-26 16:31N 37°60' E 023°33'7 7.4
2014-Aug-26 15:33N 37°54' E 023°37'1110.7
2014-Aug-26 14:33N 37°44' E 023°43'4310.2
2014-Aug-26 10:18N 37°10' E 024°16'8 9.9
2014-Aug-26 09:31N 37°04' E 024°23'1010.3
2014-Aug-26 08:34N 36°57' E 024°32'10 9.7
2014-Aug-26 07:33N 36°50' E 024°40'10 9.7
2014-Aug-26 06:31N 36°40' E 024°43'1010.2
2014-Aug-26 05:33N 36°31' E 024°47'1010.2
2014-Aug-26 04:34N 36°21' E 024°50'10 9.6
2014-Aug-26 03:32N 36°11' E 024°52'9 9.3
2014-Aug-26 02:32N 36°02' E 024°55'10 9.4
2014-Aug-26 01:30N 35°53' E 024°58'12 9.6
2014-Aug-26 00:17N 35°41' E 025°00'12 9.9
2014-Aug-25 23:05N 35°30' E 025°04'6 9.8
2014-Aug-25 22:30N 35°24' E 025°05'4 0.5
2014-Aug-25 14:29N 35°21' E 025°03'0 0.0
2014-Aug-25 07:12N 35°21' E 025°03'21 1.4
2014-Aug-24 15:28N 35°41' E 024°54'1510.6
2014-Aug-24 14:05N 35°54' E 024°45'610.7
2014-Aug-24 13:32N 35°59' E 024°42'1110.7
2014-Aug-24 12:32N 36°08' E 024°35'1010.4
2014-Aug-24 11:32N 36°18' E 024°29'1110.2
2014-Aug-24 10:28N 36°27' E 024°22'910.2
2014-Aug-24 09:32N 36°35' E 024°16'1010.1
2014-Aug-24 08:32N 36°45' E 024°11'1010.1
2014-Aug-24 07:33N 36°54' E 024°07'1210.2
2014-Aug-24 06:19N 37°05' E 024°01'2210.1
2014-Aug-24 04:11N 37°25' E 023°50'710.2
2014-Aug-24 03:28N 37°32' E 023°47'910.1
2014-Aug-24 02:33N 37°40' E 023°42'1010.3
2014-Aug-24 01:33N 37°49' E 023°36'1010.2
2014-Aug-24 00:33N 37°52' E 023°23'7 6.6
2014-Aug-23 23:33N 37°58' E 023°25'8 7.8
2014-Aug-23 22:30N 38°01' E 023°35'2 0.1
2014-Aug-22 21:08N 38°01' E 023°32'0 0.0
2014-Aug-22 20:32N 38°01' E 023°33'0 0.0
2014-Aug-22 19:32N 38°01' E 023°32'0 0.0
2014-Aug-22 18:32N 38°01' E 023°33'0 0.0
2014-Aug-22 17:32N 38°01' E 023°33'0 0.0
2014-Aug-22 16:32N 38°01' E 023°33'0 0.0
2014-Aug-22 15:08N 38°01' E 023°33'0 0.0
2014-Aug-22 14:32N 38°01' E 023°33'  

Dump ship's entire track history